Location: Châteauvieux
(47.2310°N, 1.3828°E)
Time: 23:35:06
(UTC+00:00)

RESURS DK-1 - Pass Details

Date: 15 May 2026
Orbit: 522 x 531 km, 69.9° (Epoch: 11 June)

Event Time Altitude Azimuth Distance (km) Brightness Sun altitude
Rises 22:13:59 0° 337° (NNW) 2,682 7.5 -20.2°
Reaches altitude 10° 22:16:18 10° 345° (NNW) 1,789 6.1 -20.4°
Maximum altitude 22:20:01 37° 54° (NE) 839 3.3 -20.6°
Enters shadow 22:20:51 33° 84° (E) 910 3.2 -20.7°
